Year,Month,Day,Hour,Minute,Value (Times are PST for temperature in C)
2017,06,26,00,00,23.90
2017,06,26,00,01,24.00
2017,06,26,00,02,24.00
2017,06,26,00,03,24.00
2017,06,26,00,04,24.00
2017,06,26,00,05,24.10
2017,06,26,00,06,24.10
2017,06,26,00,07,24.10
2017,06,26,00,08,24.10
2017,06,26,00,09,24.10
2017,06,26,00,10,24.10
2017,06,26,00,11,24.10
2017,06,26,00,12,24.10
2017,06,26,00,13,24.10
2017,06,26,00,14,24.00
2017,06,26,00,15,24.00
2017,06,26,00,16,24.00
2017,06,26,00,17,23.90
2017,06,26,00,18,23.90
2017,06,26,00,19,23.90
2017,06,26,00,20,23.90
2017,06,26,00,21,23.80
2017,06,26,00,22,23.80
2017,06,26,00,23,23.80
2017,06,26,00,24,23.80
2017,06,26,00,25,23.70
2017,06,26,00,26,23.70
2017,06,26,00,27,23.70
2017,06,26,00,28,23.60
2017,06,26,00,29,23.60
2017,06,26,00,30,23.60
2017,06,26,00,31,23.50
2017,06,26,00,32,23.50
2017,06,26,00,33,23.40
2017,06,26,00,34,23.40
2017,06,26,00,35,23.40
2017,06,26,00,36,23.30
2017,06,26,00,37,23.30
2017,06,26,00,38,23.30
2017,06,26,00,39,23.20
2017,06,26,00,40,23.20
2017,06,26,00,41,23.20
2017,06,26,00,42,23.10
2017,06,26,00,43,23.10
2017,06,26,00,44,23.10
2017,06,26,00,45,23.00
2017,06,26,00,46,23.00
2017,06,26,00,47,23.00
2017,06,26,00,48,22.90
2017,06,26,00,49,22.90
2017,06,26,00,50,22.90
2017,06,26,00,51,22.90
2017,06,26,00,52,22.80
2017,06,26,00,53,22.80
2017,06,26,00,54,22.80
2017,06,26,00,55,22.80
2017,06,26,00,56,22.80
2017,06,26,00,57,22.80
2017,06,26,00,58,22.70
2017,06,26,00,59,22.70
2017,06,26,01,00,22.70
2017,06,26,01,01,22.70
2017,06,26,01,02,22.70
2017,06,26,01,03,22.60
2017,06,26,01,04,22.60
2017,06,26,01,05,22.60
2017,06,26,01,06,22.60
2017,06,26,01,07,22.60
2017,06,26,01,08,22.50
2017,06,26,01,09,22.50
2017,06,26,01,10,22.50
2017,06,26,01,11,22.50
2017,06,26,01,12,22.50
2017,06,26,01,13,22.50
2017,06,26,01,14,22.50
2017,06,26,01,15,22.40
2017,06,26,01,16,22.40
2017,06,26,01,17,22.40
2017,06,26,01,18,22.40
2017,06,26,01,19,22.40
2017,06,26,01,20,22.40
2017,06,26,01,21,22.40
2017,06,26,01,22,22.40
2017,06,26,01,23,22.40
2017,06,26,01,24,22.40
2017,06,26,01,25,22.40
2017,06,26,01,26,22.40
2017,06,26,01,27,22.40
2017,06,26,01,28,22.30
2017,06,26,01,29,22.30
2017,06,26,01,30,22.30
2017,06,26,01,31,22.20
2017,06,26,01,32,22.20
2017,06,26,01,33,22.20
2017,06,26,01,34,22.20
2017,06,26,01,35,22.20
2017,06,26,01,36,22.20
2017,06,26,01,37,22.20
2017,06,26,01,38,22.20
2017,06,26,01,39,22.20
2017,06,26,01,40,22.20
2017,06,26,01,41,22.20
2017,06,26,01,42,22.20
2017,06,26,01,43,22.20
2017,06,26,01,44,22.10
2017,06,26,01,45,22.00
2017,06,26,01,46,22.00
2017,06,26,01,47,21.90
2017,06,26,01,48,21.90
2017,06,26,01,49,21.80
2017,06,26,01,50,21.80
2017,06,26,01,51,21.80
2017,06,26,01,52,21.80
2017,06,26,01,53,21.80
2017,06,26,01,54,21.80
2017,06,26,01,55,21.80
2017,06,26,01,56,21.80
2017,06,26,01,57,21.80
2017,06,26,01,58,21.80
2017,06,26,01,59,21.70
2017,06,26,02,00,21.70
2017,06,26,02,01,21.70
2017,06,26,02,02,21.70
2017,06,26,02,03,21.60
2017,06,26,02,04,21.60
2017,06,26,02,05,21.60
2017,06,26,02,06,21.60
2017,06,26,02,07,21.50
2017,06,26,02,08,21.50
2017,06,26,02,09,21.50
2017,06,26,02,10,21.40
2017,06,26,02,11,21.40
2017,06,26,02,12,21.40
2017,06,26,02,13,21.40
2017,06,26,02,14,21.40
2017,06,26,02,15,21.40
2017,06,26,02,16,21.40
2017,06,26,02,17,21.40
2017,06,26,02,18,21.40
2017,06,26,02,19,21.40
2017,06,26,02,20,21.40
2017,06,26,02,21,21.40
2017,06,26,02,22,21.30
2017,06,26,02,23,21.30
2017,06,26,02,24,21.30
2017,06,26,02,25,21.30
2017,06,26,02,26,21.30
2017,06,26,02,27,21.30
2017,06,26,02,28,21.20
2017,06,26,02,29,21.20
2017,06,26,02,30,21.20
2017,06,26,02,31,21.20
2017,06,26,02,32,21.20
2017,06,26,02,33,21.20
2017,06,26,02,34,21.20
2017,06,26,02,35,21.20
2017,06,26,02,36,21.20
2017,06,26,02,37,21.20
2017,06,26,02,38,21.20
2017,06,26,02,39,21.10
2017,06,26,02,40,21.10
2017,06,26,02,41,21.00
2017,06,26,02,42,21.00
2017,06,26,02,43,20.90
2017,06,26,02,44,20.80
2017,06,26,02,45,20.80
2017,06,26,02,46,20.80
2017,06,26,02,47,20.80
2017,06,26,02,48,20.70
2017,06,26,02,49,20.70
2017,06,26,02,50,20.60
2017,06,26,02,51,20.60
2017,06,26,02,52,20.60
2017,06,26,02,53,20.50
2017,06,26,02,54,20.50
2017,06,26,02,55,20.50
2017,06,26,02,56,20.50
2017,06,26,02,57,20.50
2017,06,26,02,58,20.60
2017,06,26,02,59,20.60
2017,06,26,03,00,20.50
2017,06,26,03,01,20.60
2017,06,26,03,02,20.50
2017,06,26,03,03,20.50
2017,06,26,03,04,20.50
2017,06,26,03,05,20.50
2017,06,26,03,06,20.40
2017,06,26,03,07,20.40
2017,06,26,03,08,20.40
2017,06,26,03,09,20.30
2017,06,26,03,10,20.30
2017,06,26,03,11,20.30
2017,06,26,03,12,20.30
2017,06,26,03,13,20.30
2017,06,26,03,14,20.30
2017,06,26,03,15,20.30
2017,06,26,03,16,20.30
2017,06,26,03,17,20.30
2017,06,26,03,18,20.30
2017,06,26,03,19,20.30
2017,06,26,03,20,20.20
2017,06,26,03,21,20.20
2017,06,26,03,22,20.20
2017,06,26,03,23,20.10
2017,06,26,03,24,20.10
2017,06,26,03,25,20.10
2017,06,26,03,26,20.10
2017,06,26,03,27,20.10
2017,06,26,03,28,20.00
2017,06,26,03,29,20.10
2017,06,26,03,30,20.10
2017,06,26,03,31,20.10
2017,06,26,03,32,20.10
2017,06,26,03,33,20.10
2017,06,26,03,34,20.10
2017,06,26,03,35,20.10
2017,06,26,03,36,20.10
2017,06,26,03,37,20.10
2017,06,26,03,38,20.10
2017,06,26,03,39,20.10
2017,06,26,03,40,20.10
2017,06,26,03,41,20.10
2017,06,26,03,42,20.10
2017,06,26,03,43,20.10
2017,06,26,03,44,20.10
2017,06,26,03,45,20.00
2017,06,26,03,46,20.00
2017,06,26,03,47,19.90
2017,06,26,03,48,19.90
2017,06,26,03,49,19.90
2017,06,26,03,50,19.90
2017,06,26,03,51,19.90
2017,06,26,03,52,19.80
2017,06,26,03,53,19.90
2017,06,26,03,54,19.80
2017,06,26,03,55,19.90
2017,06,26,03,56,19.90
2017,06,26,03,57,19.90
2017,06,26,03,58,19.90
2017,06,26,03,59,19.80
2017,06,26,04,00,19.80
2017,06,26,04,01,19.80
2017,06,26,04,02,19.80
2017,06,26,04,03,19.80
2017,06,26,04,04,19.80
2017,06,26,04,05,19.80
2017,06,26,04,06,19.80
2017,06,26,04,07,19.80
2017,06,26,04,08,19.80
2017,06,26,04,09,19.80
2017,06,26,04,10,19.80
2017,06,26,04,11,19.80
2017,06,26,04,12,19.80
2017,06,26,04,13,19.80
2017,06,26,04,14,19.80
2017,06,26,04,15,19.70
2017,06,26,04,16,19.60
2017,06,26,04,17,19.60
2017,06,26,04,18,19.50
2017,06,26,04,19,19.50
2017,06,26,04,20,19.50
2017,06,26,04,21,19.40
2017,06,26,04,22,19.40
2017,06,26,04,23,19.40
2017,06,26,04,24,19.40
2017,06,26,04,25,19.40
2017,06,26,04,26,19.40
2017,06,26,04,27,19.30
2017,06,26,04,28,19.30
2017,06,26,04,29,19.30
2017,06,26,04,30,19.30
2017,06,26,04,31,19.30
2017,06,26,04,32,19.20
2017,06,26,04,33,19.20
2017,06,26,04,34,19.20
2017,06,26,04,35,19.20
2017,06,26,04,36,19.10
2017,06,26,04,37,19.10
2017,06,26,04,38,19.10
2017,06,26,04,39,19.10
2017,06,26,04,40,19.00
2017,06,26,04,41,18.90
2017,06,26,04,42,18.90
2017,06,26,04,43,18.90
2017,06,26,04,44,18.90
2017,06,26,04,45,18.80
2017,06,26,04,46,18.80
2017,06,26,04,47,18.80
2017,06,26,04,48,18.70
2017,06,26,04,49,18.60
2017,06,26,04,50,18.50
2017,06,26,04,51,18.40
2017,06,26,04,52,18.40
2017,06,26,04,53,18.30
2017,06,26,04,54,18.30
2017,06,26,04,55,18.20
2017,06,26,04,56,18.20
2017,06,26,04,57,18.20
2017,06,26,04,58,18.20
2017,06,26,04,59,18.10
2017,06,26,05,00,18.10
2017,06,26,05,01,18.00
2017,06,26,05,02,18.00
2017,06,26,05,03,18.00
2017,06,26,05,04,17.90
2017,06,26,05,05,17.90
2017,06,26,05,06,17.90
2017,06,26,05,07,17.80
2017,06,26,05,08,17.80
2017,06,26,05,09,17.80
2017,06,26,05,10,17.80
2017,06,26,05,11,17.80
2017,06,26,05,12,17.70
2017,06,26,05,13,17.70
2017,06,26,05,14,17.70
2017,06,26,05,15,17.70
2017,06,26,05,16,17.70
2017,06,26,05,17,17.70
2017,06,26,05,18,17.70
2017,06,26,05,19,17.70
2017,06,26,05,20,17.70
2017,06,26,05,21,17.70
2017,06,26,05,22,17.70
2017,06,26,05,23,17.70
2017,06,26,05,24,17.70
2017,06,26,05,25,17.70
2017,06,26,05,26,17.70
2017,06,26,05,27,17.70
2017,06,26,05,28,17.70
2017,06,26,05,29,17.70
2017,06,26,05,30,17.70
2017,06,26,05,31,17.70
2017,06,26,05,32,17.70
2017,06,26,05,33,17.70
2017,06,26,05,34,17.70
2017,06,26,05,35,17.70
2017,06,26,05,36,17.60
2017,06,26,05,37,17.60
2017,06,26,05,38,17.60
2017,06,26,05,39,17.60
2017,06,26,05,40,17.60
2017,06,26,05,41,17.60
2017,06,26,05,42,17.60
2017,06,26,05,43,17.60
2017,06,26,05,44,17.60
2017,06,26,05,45,17.50
2017,06,26,05,46,17.50
2017,06,26,05,47,17.50
2017,06,26,05,48,17.60
2017,06,26,05,49,17.60
2017,06,26,05,50,17.60
2017,06,26,05,51,17.60
2017,06,26,05,52,17.60
2017,06,26,05,53,17.60
2017,06,26,05,54,17.60
2017,06,26,05,55,17.70
2017,06,26,05,56,17.70
2017,06,26,05,57,17.70
2017,06,26,05,58,17.70
2017,06,26,05,59,17.70
2017,06,26,06,00,17.70
2017,06,26,06,01,17.70
2017,06,26,06,02,17.70
2017,06,26,06,03,17.70
2017,06,26,06,04,17.60
2017,06,26,06,05,17.60
2017,06,26,06,06,17.60
2017,06,26,06,07,17.60
2017,06,26,06,08,17.60
2017,06,26,06,09,17.60
2017,06,26,06,10,17.60
2017,06,26,06,11,17.50
2017,06,26,06,12,17.50
2017,06,26,06,13,17.50
2017,06,26,06,14,17.40
2017,06,26,06,15,17.40
2017,06,26,06,16,17.40
2017,06,26,06,17,17.40
2017,06,26,06,18,17.40
2017,06,26,06,19,17.40
2017,06,26,06,20,17.30
2017,06,26,06,21,17.30
2017,06,26,06,22,17.30
2017,06,26,06,23,17.30
2017,06,26,06,24,17.30
2017,06,26,06,25,17.30
2017,06,26,06,26,17.30
2017,06,26,06,27,17.30
2017,06,26,06,28,17.30
2017,06,26,06,29,17.30
2017,06,26,06,30,17.30
2017,06,26,06,31,17.20
2017,06,26,06,32,17.20
2017,06,26,06,33,17.20
2017,06,26,06,34,17.20
2017,06,26,06,35,17.20
2017,06,26,06,36,17.20
2017,06,26,06,37,17.20
2017,06,26,06,38,17.20
2017,06,26,06,39,17.20
2017,06,26,06,40,17.10
2017,06,26,06,41,17.10
2017,06,26,06,42,17.10
2017,06,26,06,43,17.10
2017,06,26,06,44,17.10
2017,06,26,06,45,17.00
2017,06,26,06,46,17.00
2017,06,26,06,47,17.00
2017,06,26,06,48,17.00
2017,06,26,06,49,17.00
2017,06,26,06,50,17.00
2017,06,26,06,51,17.00
2017,06,26,06,52,17.00
2017,06,26,06,53,17.00
2017,06,26,06,54,17.00
2017,06,26,06,55,17.00
2017,06,26,06,56,17.00
2017,06,26,06,57,17.00
2017,06,26,06,58,17.00
2017,06,26,06,59,17.00
2017,06,26,07,00,17.00
2017,06,26,07,01,17.00
2017,06,26,07,02,17.10
2017,06,26,07,03,17.10
2017,06,26,07,04,17.20
2017,06,26,07,05,17.20
2017,06,26,07,06,17.20
2017,06,26,07,07,17.30
2017,06,26,07,08,17.30
2017,06,26,07,09,17.30
2017,06,26,07,10,17.30
2017,06,26,07,11,17.30
2017,06,26,07,12,17.30
2017,06,26,07,13,17.30
2017,06,26,07,14,17.20
2017,06,26,07,15,17.20
2017,06,26,07,16,17.10
2017,06,26,07,17,17.10
2017,06,26,07,18,17.10
2017,06,26,07,19,17.00
2017,06,26,07,20,17.00
2017,06,26,07,21,16.90
2017,06,26,07,22,16.90
2017,06,26,07,23,16.90
2017,06,26,07,24,16.80
2017,06,26,07,25,16.80
2017,06,26,07,26,16.80
2017,06,26,07,27,16.80
2017,06,26,07,28,16.80
2017,06,26,07,29,16.80
2017,06,26,07,30,16.80
2017,06,26,07,31,16.80
2017,06,26,07,32,16.80
2017,06,26,07,33,16.80
2017,06,26,07,34,16.80
2017,06,26,07,35,16.80
2017,06,26,07,36,16.90
2017,06,26,07,37,17.00
2017,06,26,07,38,17.00
2017,06,26,07,39,17.10
2017,06,26,07,40,17.10
2017,06,26,07,41,17.20
2017,06,26,07,42,17.30
2017,06,26,07,43,17.30
2017,06,26,07,44,17.30
2017,06,26,07,45,17.30
2017,06,26,07,46,17.30
2017,06,26,07,47,17.30
2017,06,26,07,48,17.30
2017,06,26,07,49,17.30
2017,06,26,07,50,17.30
2017,06,26,07,51,17.30
2017,06,26,07,52,17.30
2017,06,26,07,53,17.30
2017,06,26,07,54,17.30
2017,06,26,07,55,17.30
2017,06,26,07,56,17.30
2017,06,26,07,57,17.30
2017,06,26,07,58,17.40
2017,06,26,07,59,17.40
2017,06,26,08,00,17.40
2017,06,26,08,01,17.40
2017,06,26,08,02,17.40
2017,06,26,08,03,17.40
2017,06,26,08,04,17.40
2017,06,26,08,05,17.40
2017,06,26,08,06,17.40
2017,06,26,08,07,17.40
2017,06,26,08,08,17.40
2017,06,26,08,09,17.40
2017,06,26,08,10,17.50
2017,06,26,08,11,17.50
2017,06,26,08,12,17.50
2017,06,26,08,13,17.60
2017,06,26,08,14,17.60
2017,06,26,08,15,17.60
2017,06,26,08,16,17.70
2017,06,26,08,17,17.70
2017,06,26,08,18,17.70
2017,06,26,08,19,17.80
2017,06,26,08,20,17.80
2017,06,26,08,21,17.80
2017,06,26,08,22,17.80
2017,06,26,08,23,17.90
2017,06,26,08,24,17.90
2017,06,26,08,25,18.00
2017,06,26,08,26,18.10
2017,06,26,08,27,18.20
2017,06,26,08,28,18.30
2017,06,26,08,29,18.50
2017,06,26,08,30,18.60
2017,06,26,08,31,18.60
2017,06,26,08,32,18.70
2017,06,26,08,33,18.80
2017,06,26,08,34,18.80
2017,06,26,08,35,18.90
2017,06,26,08,36,18.90
2017,06,26,08,37,19.00
2017,06,26,08,38,19.00
2017,06,26,08,39,19.00
2017,06,26,08,40,19.00
2017,06,26,08,41,19.00
2017,06,26,08,42,19.00
2017,06,26,08,43,19.00
2017,06,26,08,44,19.10
2017,06,26,08,45,19.10
2017,06,26,08,46,19.20
2017,06,26,08,47,19.30
2017,06,26,08,48,19.30
2017,06,26,08,49,19.40
2017,06,26,08,50,19.40
2017,06,26,08,51,19.30
2017,06,26,08,52,19.40
2017,06,26,08,53,19.50
2017,06,26,08,54,19.50
2017,06,26,08,55,19.60
2017,06,26,08,56,19.80
2017,06,26,08,57,19.90
2017,06,26,08,58,20.00
2017,06,26,08,59,20.10
2017,06,26,09,00,20.20
2017,06,26,09,01,20.30
2017,06,26,09,02,20.30
2017,06,26,09,03,20.30
2017,06,26,09,04,20.30
2017,06,26,09,05,20.30
2017,06,26,09,06,20.40
2017,06,26,09,07,20.40
2017,06,26,09,08,20.50
2017,06,26,09,09,20.50
2017,06,26,09,10,20.60
2017,06,26,09,11,20.70
2017,06,26,09,12,20.80
2017,06,26,09,13,20.80
2017,06,26,09,14,20.90
2017,06,26,09,15,20.90
2017,06,26,09,16,20.90
2017,06,26,09,17,20.90
2017,06,26,09,18,20.90
2017,06,26,09,19,20.80
2017,06,26,09,20,20.90
2017,06,26,09,21,20.90
2017,06,26,09,22,20.90
2017,06,26,09,23,21.00
2017,06,26,09,24,21.10
2017,06,26,09,25,21.10
2017,06,26,09,26,21.20
2017,06,26,09,27,21.30
2017,06,26,09,28,21.30
2017,06,26,09,29,21.30
2017,06,26,09,30,21.20
2017,06,26,09,31,21.10
2017,06,26,09,32,21.10
2017,06,26,09,33,21.10
2017,06,26,09,34,21.00
2017,06,26,09,35,21.00
2017,06,26,09,36,20.90
2017,06,26,09,37,20.90
2017,06,26,09,38,21.00
2017,06,26,09,39,21.00
2017,06,26,09,40,21.00
2017,06,26,09,41,21.00
2017,06,26,09,42,20.90
2017,06,26,09,43,20.90
2017,06,26,09,44,20.90
2017,06,26,09,45,20.90
2017,06,26,09,46,20.90
2017,06,26,09,47,20.90
2017,06,26,09,48,20.90
2017,06,26,09,49,20.80
2017,06,26,09,50,20.60
2017,06,26,09,51,20.50
2017,06,26,09,52,20.40
2017,06,26,09,53,20.40
2017,06,26,09,54,20.40
2017,06,26,09,55,20.40
2017,06,26,09,56,20.40
2017,06,26,09,57,20.30
2017,06,26,09,58,20.20
2017,06,26,09,59,20.10
2017,06,26,10,00,20.00
2017,06,26,10,01,19.90
2017,06,26,10,02,19.80
2017,06,26,10,03,19.70
2017,06,26,10,04,19.60
2017,06,26,10,05,19.50
2017,06,26,10,06,19.40
2017,06,26,10,07,19.40
2017,06,26,10,08,19.30
2017,06,26,10,09,19.40
2017,06,26,10,10,19.40
2017,06,26,10,11,19.40
2017,06,26,10,12,19.50
2017,06,26,10,13,19.60
2017,06,26,10,14,19.60
2017,06,26,10,15,19.70
2017,06,26,10,16,19.70
2017,06,26,10,17,19.70
2017,06,26,10,18,19.70
2017,06,26,10,19,19.70
2017,06,26,10,20,19.70
2017,06,26,10,21,19.70
2017,06,26,10,22,19.70
2017,06,26,10,23,19.80
2017,06,26,10,24,19.80
2017,06,26,10,25,19.80
2017,06,26,10,26,19.80
2017,06,26,10,27,19.80
2017,06,26,10,28,19.70
2017,06,26,10,29,19.70
2017,06,26,10,30,19.70
2017,06,26,10,31,19.70
2017,06,26,10,32,19.70
2017,06,26,10,33,19.80
2017,06,26,10,34,19.80
2017,06,26,10,35,19.80
2017,06,26,10,36,19.80
2017,06,26,10,37,19.80
2017,06,26,10,38,19.80
2017,06,26,10,39,19.80
2017,06,26,10,40,19.80
2017,06,26,10,41,19.70
2017,06,26,10,42,19.60
2017,06,26,10,43,19.60
2017,06,26,10,44,19.50
2017,06,26,10,45,19.50
2017,06,26,10,46,19.40
2017,06,26,10,47,19.50
2017,06,26,10,48,19.50
2017,06,26,10,49,19.60
2017,06,26,10,50,19.60
2017,06,26,10,51,19.50
2017,06,26,10,52,19.50
2017,06,26,10,53,19.40
2017,06,26,10,54,19.40
2017,06,26,10,55,19.50
2017,06,26,10,56,19.40
2017,06,26,10,57,19.40
2017,06,26,10,58,19.40
2017,06,26,10,59,19.40
2017,06,26,11,00,19.40
2017,06,26,11,01,19.40
2017,06,26,11,02,19.40
2017,06,26,11,03,19.40
2017,06,26,11,04,19.40
2017,06,26,11,05,19.50
2017,06,26,11,06,19.40
2017,06,26,11,07,19.40
2017,06,26,11,08,19.40
2017,06,26,11,09,19.40
2017,06,26,11,10,19.40
2017,06,26,11,11,19.40
2017,06,26,11,12,19.40
2017,06,26,11,13,19.50
2017,06,26,11,14,19.50
2017,06,26,11,15,19.60
2017,06,26,11,16,19.70
2017,06,26,11,17,19.70
2017,06,26,11,18,19.80
2017,06,26,11,19,19.80
2017,06,26,11,20,19.80
2017,06,26,11,21,19.80
2017,06,26,11,22,19.80
2017,06,26,11,23,19.90
2017,06,26,11,24,19.90
2017,06,26,11,25,20.00
2017,06,26,11,26,20.10
2017,06,26,11,27,20.20
2017,06,26,11,28,20.20
2017,06,26,11,29,20.20
2017,06,26,11,30,20.10
2017,06,26,11,31,20.10
2017,06,26,11,32,20.10
2017,06,26,11,33,20.10
2017,06,26,11,34,20.10
2017,06,26,11,35,20.20
2017,06,26,11,36,20.20
2017,06,26,11,37,20.30
2017,06,26,11,38,20.30
2017,06,26,11,39,20.40
2017,06,26,11,40,20.50
2017,06,26,11,41,20.60
2017,06,26,11,42,20.70
2017,06,26,11,43,20.80
2017,06,26,11,44,20.90
2017,06,26,11,45,21.00
2017,06,26,11,46,21.10
2017,06,26,11,47,21.10
2017,06,26,11,48,21.20
2017,06,26,11,49,21.10
2017,06,26,11,50,21.10
2017,06,26,11,51,21.00
2017,06,26,11,52,21.00
2017,06,26,11,53,20.90
2017,06,26,11,54,20.80
2017,06,26,11,55,20.90
2017,06,26,11,56,20.90
2017,06,26,11,57,21.00
2017,06,26,11,58,21.10
2017,06,26,11,59,21.10
2017,06,26,12,00,21.20
2017,06,26,12,01,21.20
2017,06,26,12,02,21.30
2017,06,26,12,03,21.30
2017,06,26,12,04,21.30
2017,06,26,12,05,21.40
2017,06,26,12,06,21.50
2017,06,26,12,07,21.60
2017,06,26,12,08,21.70
2017,06,26,12,09,21.70
2017,06,26,12,10,21.60
2017,06,26,12,11,21.60
2017,06,26,12,12,21.70
2017,06,26,12,13,21.70
2017,06,26,12,14,21.60
2017,06,26,12,15,21.60
2017,06,26,12,16,21.70
2017,06,26,12,17,21.70
2017,06,26,12,18,21.80
2017,06,26,12,19,21.80
2017,06,26,12,20,21.80
2017,06,26,12,21,21.90
2017,06,26,12,22,21.90
2017,06,26,12,23,22.00
2017,06,26,12,24,22.00
2017,06,26,12,25,22.10
2017,06,26,12,26,22.10
2017,06,26,12,27,22.20
2017,06,26,12,28,22.20
2017,06,26,12,29,22.20
2017,06,26,12,30,22.30
2017,06,26,12,31,22.30
2017,06,26,12,32,22.30
2017,06,26,12,33,22.30
2017,06,26,12,34,22.30
2017,06,26,12,35,22.30
2017,06,26,12,36,22.30
2017,06,26,12,37,22.30
2017,06,26,12,38,22.30
2017,06,26,12,39,22.30
2017,06,26,12,40,22.30
2017,06,26,12,41,22.40
2017,06,26,12,42,22.50
2017,06,26,12,43,22.60
2017,06,26,12,44,22.70
2017,06,26,12,45,22.80
2017,06,26,12,46,22.70
2017,06,26,12,47,22.60
2017,06,26,12,48,22.40
2017,06,26,12,49,22.30
2017,06,26,12,50,22.20
2017,06,26,12,51,22.10
2017,06,26,12,52,22.00
2017,06,26,12,53,22.00
2017,06,26,12,54,21.90
2017,06,26,12,55,21.90
2017,06,26,12,56,21.90
2017,06,26,12,57,21.90
2017,06,26,12,58,21.90
2017,06,26,12,59,21.90
2017,06,26,13,00,22.00
2017,06,26,13,01,22.10
2017,06,26,13,02,22.20
2017,06,26,13,03,22.20
2017,06,26,13,04,22.30
2017,06,26,13,05,22.30
2017,06,26,13,06,22.20
2017,06,26,13,07,22.20
2017,06,26,13,08,22.20
2017,06,26,13,09,22.30
2017,06,26,13,10,22.30
2017,06,26,13,11,22.40
2017,06,26,13,12,22.40
2017,06,26,13,13,22.50
2017,06,26,13,14,22.50
2017,06,26,13,15,22.50
2017,06,26,13,16,22.60
2017,06,26,13,17,22.60
2017,06,26,13,18,22.50
2017,06,26,13,19,22.50
2017,06,26,13,20,22.40
2017,06,26,13,21,22.40
2017,06,26,13,22,22.30
2017,06,26,13,23,22.30
2017,06,26,13,24,22.30
2017,06,26,13,25,22.30
2017,06,26,13,26,22.30
2017,06,26,13,27,22.30
2017,06,26,13,28,22.30
2017,06,26,13,29,22.40
2017,06,26,13,30,22.50
2017,06,26,13,31,22.60
2017,06,26,13,32,22.70
2017,06,26,13,33,22.90
2017,06,26,13,34,22.90
2017,06,26,13,35,23.10
2017,06,26,13,36,23.20
2017,06,26,13,37,23.30
2017,06,26,13,38,23.20
2017,06,26,13,39,23.00
2017,06,26,13,40,22.90
2017,06,26,13,41,22.80
2017,06,26,13,42,22.70
2017,06,26,13,43,22.60
2017,06,26,13,44,22.60
2017,06,26,13,45,22.50
2017,06,26,13,46,22.60
2017,06,26,13,47,22.60
2017,06,26,13,48,22.60
2017,06,26,13,49,22.70
2017,06,26,13,50,22.80
2017,06,26,13,51,22.80
2017,06,26,13,52,22.80
2017,06,26,13,53,22.70
2017,06,26,13,54,22.70
2017,06,26,13,55,22.70
2017,06,26,13,56,22.80
2017,06,26,13,57,22.90
2017,06,26,13,58,23.10
2017,06,26,13,59,23.30
2017,06,26,14,00,23.50
2017,06,26,14,01,23.60
2017,06,26,14,02,23.60
2017,06,26,14,03,23.50
2017,06,26,14,04,23.40
2017,06,26,14,05,23.30
2017,06,26,14,06,23.30
2017,06,26,14,07,23.30
2017,06,26,14,08,23.20
2017,06,26,14,09,23.20
2017,06,26,14,10,23.10
2017,06,26,14,11,23.10
2017,06,26,14,12,23.20
2017,06,26,14,13,23.20
2017,06,26,14,14,23.20
2017,06,26,14,15,23.20
2017,06,26,14,16,23.20
2017,06,26,14,17,23.30
2017,06,26,14,18,23.30
2017,06,26,14,19,23.40
2017,06,26,14,20,23.50
2017,06,26,14,21,23.60
2017,06,26,14,22,23.70
2017,06,26,14,23,23.70
2017,06,26,14,24,23.70
2017,06,26,14,25,23.70
2017,06,26,14,26,23.70
2017,06,26,14,27,23.60
2017,06,26,14,28,23.40
2017,06,26,14,29,23.40
2017,06,26,14,30,23.40
2017,06,26,14,31,23.60
2017,06,26,14,32,23.70
2017,06,26,14,33,23.80
2017,06,26,14,34,23.80
2017,06,26,14,35,23.80
2017,06,26,14,36,23.70
2017,06,26,14,37,23.60
2017,06,26,14,38,23.40
2017,06,26,14,39,23.40
2017,06,26,14,40,23.30
2017,06,26,14,41,23.30
2017,06,26,14,42,23.20
2017,06,26,14,43,23.20
2017,06,26,14,44,23.20
2017,06,26,14,45,23.10
2017,06,26,14,46,23.10
2017,06,26,14,47,23.00
2017,06,26,14,48,22.90
2017,06,26,14,49,22.80
2017,06,26,14,50,22.90
2017,06,26,14,51,22.90
2017,06,26,14,52,22.90
2017,06,26,14,53,22.90
2017,06,26,14,54,22.90
2017,06,26,14,55,23.00
2017,06,26,14,56,23.00
2017,06,26,14,57,23.10
2017,06,26,14,58,23.10
2017,06,26,14,59,23.10
2017,06,26,15,00,23.00
2017,06,26,15,01,22.90
2017,06,26,15,02,22.80
2017,06,26,15,03,22.70
2017,06,26,15,04,22.70
2017,06,26,15,05,22.70
2017,06,26,15,06,22.70
2017,06,26,15,07,22.60
2017,06,26,15,08,22.60
2017,06,26,15,09,22.50
2017,06,26,15,10,22.40
2017,06,26,15,11,22.40
2017,06,26,15,12,22.30
2017,06,26,15,13,22.30
2017,06,26,15,14,22.30
2017,06,26,15,15,22.30
2017,06,26,15,16,22.30
2017,06,26,15,17,22.20
2017,06,26,15,18,22.10
2017,06,26,15,19,22.10
2017,06,26,15,20,22.10
2017,06,26,15,21,22.10
2017,06,26,15,22,22.20
2017,06,26,15,23,22.20
2017,06,26,15,24,22.30
2017,06,26,15,25,22.40
2017,06,26,15,26,22.50
2017,06,26,15,27,22.50
2017,06,26,15,28,22.50
2017,06,26,15,29,22.50
2017,06,26,15,30,22.40
2017,06,26,15,31,22.30
2017,06,26,15,32,22.20
2017,06,26,15,33,22.10
2017,06,26,15,34,22.10
2017,06,26,15,35,22.10
2017,06,26,15,36,22.20
2017,06,26,15,37,22.20
2017,06,26,15,38,22.20
2017,06,26,15,39,22.30
2017,06,26,15,40,22.30
2017,06,26,15,41,22.30
2017,06,26,15,42,22.30
2017,06,26,15,43,22.30
2017,06,26,15,44,22.30
2017,06,26,15,45,22.30
2017,06,26,15,46,22.30
2017,06,26,15,47,22.40
2017,06,26,15,48,22.40
2017,06,26,15,49,22.50
2017,06,26,15,50,22.50
2017,06,26,15,51,22.60
2017,06,26,15,52,22.80
2017,06,26,15,53,22.80
2017,06,26,15,54,22.90
2017,06,26,15,55,22.80
2017,06,26,15,56,22.80
2017,06,26,15,57,22.80
2017,06,26,15,58,22.80
2017,06,26,15,59,22.70
2017,06,26,16,00,22.70
2017,06,26,16,01,22.70
2017,06,26,16,02,22.70
2017,06,26,16,03,22.70
2017,06,26,16,04,22.70
2017,06,26,16,05,22.70
2017,06,26,16,06,22.70
2017,06,26,16,07,22.70
2017,06,26,16,08,22.60
2017,06,26,16,09,22.70
2017,06,26,16,10,22.70
2017,06,26,16,11,22.70
2017,06,26,16,12,22.70
2017,06,26,16,13,22.80
2017,06,26,16,14,22.80
2017,06,26,16,15,22.80
2017,06,26,16,16,22.90
2017,06,26,16,17,22.80
2017,06,26,16,18,22.80
2017,06,26,16,19,22.70
2017,06,26,16,20,22.70
2017,06,26,16,21,22.70
2017,06,26,16,22,22.70
2017,06,26,16,23,22.70
2017,06,26,16,24,22.60
2017,06,26,16,25,22.60
2017,06,26,16,26,22.60
2017,06,26,16,27,22.60
2017,06,26,16,28,22.70
2017,06,26,16,29,22.80
2017,06,26,16,30,22.90
2017,06,26,16,31,23.00
2017,06,26,16,32,23.10
2017,06,26,16,33,23.20
2017,06,26,16,34,23.30
2017,06,26,16,35,23.30
2017,06,26,16,36,23.20
2017,06,26,16,37,23.20
2017,06,26,16,38,23.00
2017,06,26,16,39,22.80
2017,06,26,16,40,22.70
2017,06,26,16,41,22.60
2017,06,26,16,42,22.50
2017,06,26,16,43,22.50
2017,06,26,16,44,22.50
2017,06,26,16,45,22.50
2017,06,26,16,46,22.50
2017,06,26,16,47,22.50
2017,06,26,16,48,22.50
2017,06,26,16,49,22.60
2017,06,26,16,50,22.70
2017,06,26,16,51,22.70
2017,06,26,16,52,22.60
2017,06,26,16,53,22.60
2017,06,26,16,54,22.70
2017,06,26,16,55,22.60
2017,06,26,16,56,22.60
2017,06,26,16,57,22.70
2017,06,26,16,58,22.70
2017,06,26,16,59,22.70
2017,06,26,17,00,22.70
2017,06,26,17,01,22.70
2017,06,26,17,02,22.60
2017,06,26,17,03,22.60
2017,06,26,17,04,22.60
2017,06,26,17,05,22.70
2017,06,26,17,06,22.70
2017,06,26,17,07,22.70
2017,06,26,17,08,22.70
2017,06,26,17,09,22.60
2017,06,26,17,10,22.60
2017,06,26,17,11,22.50
2017,06,26,17,12,22.40
2017,06,26,17,13,22.30
2017,06,26,17,14,22.30
2017,06,26,17,15,22.20
2017,06,26,17,16,22.20
2017,06,26,17,17,22.20
2017,06,26,17,18,22.20
2017,06,26,17,19,22.20